K0SNA Weather Reports


Display with metric or nautical units.
time (UTC)temp
F
wind
direction
speed
MPH
gust
MPH
rain 1hr
in
rain 24hr
in
rain mn
in
humidity
%
barometer
mb
20260508185756 68 280 3.0 8.0 0.00 0.00 0.00 24 1004.6
20260508185254 69 199 2.0 10.0 0.00 0.00 0.00 25 1004.5
20260508184751 69 221 4.0 8.0 0.00 0.00 0.00 24 1004.6
20260508184248 69 345 7.0 10.0 0.00 0.00 0.00 26 1004.5
20260508183745 70 272 6.0 11.0 0.00 0.00 0.00 24 1004.6
20260508183241 69 282 6.0 7.0 0.00 0.00 0.00 24 1004.8
20260508182737 69 213 7.0 13.0 0.00 0.00 0.00 24 1004.7
20260508182234 70 274 3.0 10.0 0.00 0.00 0.00 23 1004.8
20260508181730 69 191 2.0 7.0 0.00 0.00 0.00 24 1005.0
20260508181227 69 209 3.0 10.0 0.00 0.00 0.00 24 1005.1
20260508180724 69 271 5.0 8.0 0.00 0.00 0.00 26 1005.2
20260508180220 68 249 3.0 8.0 0.00 0.00 0.00 25 1005.4
20260508175717 69 242 6.0 11.0 0.00 0.00 0.00 23 1005.2
20260508175214 69 303 3.0 10.0 0.00 0.00 0.00 24 1005.6
20260508174712 68 292 5.0 8.0 0.00 0.00 0.00 24 1005.8
20260508174209 68 242 4.0 16.0 0.00 0.00 0.00 25 1005.9
20260508173705 68 353 4.0 8.0 0.00 0.00 0.00 24 1005.9
20260508173201 68 297 5.0 8.0 0.00 0.00 0.00 24 1006.2
20260508172658 67 220 5.0 9.0 0.00 0.00 0.00 23 1006.0
20260508172155 68 20 6.0 9.0 0.00 0.00 0.00 24 1006.3
20260508171651 68 201 4.0 5.0 0.00 0.00 0.00 24 1006.4
20260508171147 67 266 3.0 17.0 0.00 0.00 0.00 24 1006.3
20260508170645 67 344 4.0 8.0 0.00 0.00 0.00 25 1006.3
20260508170143 67 321 3.0 5.0 0.00 0.00 0.00 26 1006.5
20260508165639 67 207 2.0 10.0 0.00 0.00 0.00 26 1006.7
20260508165136 67 228 4.0 10.0 0.00 0.00 0.00 26 1006.6
20260508164633 66 233 4.0 6.0 0.00 0.00 0.00 27 1006.7
20260508164130 66 315 6.0 7.0 0.00 0.00 0.00 30 1006.7
20260508163627 65 250 3.0 7.0 0.00 0.00 0.00 29 1006.9
20260508163124 63 211 2.0 5.0 0.00 0.00 0.00 33 1006.9
20260508162620 62 191 3.0 7.0 0.00 0.00 0.00 32 1007.0
20260508162118 61 207 6.0 6.0 0.00 0.00 0.00 34 1007.2
20260508161614 61 216 2.0 2.0 0.00 0.00 0.00 35 1007.2
20260508161112 62 200 3.0 7.0 0.00 0.00 0.00 34 1007.1
20260508160610 62 248 4.0 8.0 0.00 0.00 0.00 33 1007.2
20260508160107 62 299 4.0 6.0 0.00 0.00 0.00 33 1007.5
20260508155604 62 227 2.0 8.0 0.00 0.00 0.00 34 1007.5
20260508155101 60 193 1.0 6.0 0.00 0.00 0.00 35 1007.5
20260508154558 59 284 3.0 10.0 0.00 0.00 0.00 36 1007.4
20260508154055 59 289 6.0 8.0 0.00 0.00 0.00 35 1007.7
20260508153552 59 220 6.0 8.0 0.00 0.00 0.00 35 1007.8
20260508153048 58 256 5.0 9.0 0.00 0.00 0.00 35 1007.6
20260508152546 59 246 5.0 8.0 0.00 0.00 0.00 35 1007.6
20260508152040 59 266 3.0 5.0 0.00 0.00 0.00 36 1007.7
20260508151537 59 278 6.0 11.0 0.00 0.00 0.00 36 1007.7
20260508151034 59 236 4.0 6.0 0.00 0.00 0.00 36 1007.8
20260508150532 59 246 2.0 6.0 0.00 0.00 0.00 38 1007.7
20260508150027 59 266 6.0 6.0 0.00 0.00 0.00 35 1007.9
20260508145524 59 214 3.0 6.0 0.00 0.00 0.00 35 1007.7
20260508145020 58 230 2.0 5.0 0.00 0.00 0.00 37 1007.9
20260508144518 58 207 6.0 9.0 0.00 0.00 0.00 36 1007.9
20260508144015 58 251 4.0 7.0 0.00 0.00 0.00 38 1008.1
20260508143513 57 241 4.0 5.0 0.00 0.00 0.00 38 1007.8
20260508143009 57 197 1.0 5.0 0.00 0.00 0.00 37 1008.0
20260508142507 56 228 3.0 6.0 0.00 0.00 0.00 37 1008.1
20260508142003 56 209 1.0 5.0 0.00 0.00 0.00 38 1008.3
20260508141459 55 256 4.0 7.0 0.00 0.00 0.00 38 1008.2
20260508140957 55 231 4.0 6.0 0.00 0.00 0.00 38 1008.2
20260508140454 55 220 3.0 8.0 0.00 0.00 0.00 37 1008.1
20260508135949 55 203 4.0 7.0 0.00 0.00 0.00 37 1008.0
20260508135446 55 225 2.0 5.0 0.00 0.00 0.00 38 1008.0
20260508134943 55 250 4.0 6.0 0.00 0.00 0.00 38 1008.2
20260508134439 55 268 5.0 10.0 0.00 0.00 0.00 38 1008.0
20260508133936 54 268 5.0 7.0 0.00 0.00 0.00 37 1008.1
20260508133434 54 210 2.0 5.0 0.00 0.00 0.00 39 1008.4
20260508132930 54 230 4.0 5.0 0.00 0.00 0.00 39 1008.3
20260508132429 54 261 4.0 6.0 0.00 0.00 0.00 38 1008.4
20260508131925 54 223 4.0 6.0 0.00 0.00 0.00 38 1008.4
20260508131420 54 221 5.0 7.0 0.00 0.00 0.00 39 1008.5
20260508130917 53 225 4.0 6.0 0.00 0.00 0.00 39 1008.5
20260508130414 52 199 4.0 8.0 0.00 0.00 0.00 40 1008.5
20260508125910 52 209 3.0 6.0 0.00 0.00 0.00 41 1008.4
20260508125406 51 196 1.0 7.0 0.00 0.00 0.00 42 1008.5
20260508124904 51 210 5.0 7.0 0.00 0.00 0.00 41 1008.4
20260508124402 50 215 3.0 6.0 0.00 0.00 0.00 42 1008.5
20260508123859 50 220 3.0 6.0 0.00 0.00 0.00 42 1008.6
20260508123358 50 218 4.0 6.0 0.00 0.00 0.00 42 1008.5
20260508122854 49 217 4.0 6.0 0.00 0.00 0.00 41 1008.5
20260508122351 49 218 3.0 6.0 0.00 0.00 0.00 43 1008.4
20260508121848 48 246 4.0 6.0 0.00 0.00 0.00 43 1008.6
20260508121346 47 211 2.0 3.0 0.00 0.00 0.00 44 1008.4
20260508120843 47 205 2.0 5.0 0.00 0.00 0.00 44 1008.3
20260508120341 46 208 2.0 3.0 0.00 0.00 0.00 46 1008.0
20260508115838 46 197 1.0 5.0 0.00 0.00 0.00 47 1008.3
20260508115336 45 210 2.0 5.0 0.00 0.00 0.00 48 1008.1
20260508114832 44 210 2.0 3.0 0.00 0.00 0.00 50 1008.4
20260508114330 44 205 0.0 2.0 0.00 0.00 0.00 50 1008.2
20260508113826 43 205 0.0 1.0 0.00 0.00 0.00 51 1008.3
20260508113324 43 204 0.0 0.0 0.00 0.00 0.00 52 1008.2
20260508112820 43 207 0.0 0.0 0.00 0.00 0.00 52 1008.4
20260508112318 42 207 0.0 0.0 0.00 0.00 0.00 53 1008.4
20260508111814 42 205 0.0 1.0 0.00 0.00 0.00 52 1008.2
20260508111311 43 210 0.0 1.0 0.00 0.00 0.00 51 1008.4
20260508110809 43 208 1.0 1.0 0.00 0.00 0.00 51 1008.2
20260508110306 43 208 1.0 1.0 0.00 0.00 0.00 51 1008.2
20260508105805 43 222 1.0 2.0 0.00 0.00 0.00 51 1008.3
20260508105305 43 208 1.0 1.0 0.00 0.00 0.00 51 1008.4
20260508104759 43 210 1.0 1.0 0.00 0.00 0.00 51 1008.2
20260508104256 43 214 2.0 2.0 0.00 0.00 0.00 50 1008.2
20260508103754 43 214 1.0 2.0 0.00 0.00 0.00 51 1008.4
20260508103250 43 202 0.0 1.0 0.00 0.00 0.00 52 1008.2
20260508102748 43 203 0.0 1.0 0.00 0.00 0.00 51 1008.4
20260508102246 43 203 0.0 0.0 0.00 0.00 0.00 52 1008.4
20260508101743 43 206 1.0 2.0 0.00 0.00 0.00 50 1008.4
20260508101240 44 207 1.0 1.0 0.00 0.00 0.00 49 1008.3
20260508100738 44 207 0.0 1.0 0.00 0.00 0.00 48 1008.4
20260508100236 44 213 1.0 2.0 0.00 0.00 0.00 47 1008.5
20260508095731 45 211 1.0 3.0 0.00 0.00 0.00 47 1008.4
20260508095229 45 220 3.0 3.0 0.00 0.00 0.00 46 1008.3
20260508094726 45 209 1.0 3.0 0.00 0.00 0.00 46 1008.3
20260508094223 45 207 2.0 2.0 0.00 0.00 0.00 45 1008.6
20260508093720 45 217 1.0 2.0 0.00 0.00 0.00 45 1008.6
20260508093218 45 220 2.0 5.0 0.00 0.00 0.00 45 1008.4
20260508092714 46 216 2.0 5.0 0.00 0.00 0.00 44 1008.5
20260508092213 45 214 2.0 3.0 0.00 0.00 0.00 45 1008.5
20260508091710 45 214 3.0 5.0 0.00 0.00 0.00 45 1008.5
20260508091207 45 254 3.0 5.0 0.00 0.00 0.00 45 1008.5
20260508090705 45 207 1.0 5.0 0.00 0.00 0.00 45 1008.5
20260508090202 45 213 1.0 2.0 0.00 0.00 0.00 45 1008.6
20260508085658 45 239 3.0 3.0 0.00 0.00 0.00 45 1008.3
20260508085155 45 208 1.0 2.0 0.00 0.00 0.00 45 1008.4
20260508084651 45 212 1.0 2.0 0.00 0.00 0.00 45 1008.7
20260508084149 45 217 2.0 2.0 0.00 0.00 0.00 46 1008.6
20260508083646 45 208 1.0 3.0 0.00 0.00 0.00 45 1008.5
20260508083144 46 198 2.0 3.0 0.00 0.00 0.00 45 1008.5
20260508082638 46 214 2.0 3.0 0.00 0.00 0.00 44 1008.6
20260508082136 46 212 3.0 5.0 0.00 0.00 0.00 43 1008.6
20260508081634 46 218 3.0 5.0 0.00 0.00 0.00 43 1008.5
20260508081130 46 246 4.0 8.0 0.00 0.00 0.00 43 1008.5
20260508080627 46 230 3.0 5.0 0.00 0.00 0.00 42 1008.6
20260508080126 46 241 5.0 6.0 0.00 0.00 0.00 42 1008.7
20260508075621 47 205 3.0 6.0 0.00 0.00 0.00 42 1008.7
20260508075119 47 218 2.0 5.0 0.00 0.00 0.00 42 1008.8
20260508074616 47 209 2.0 5.0 0.00 0.00 0.00 42 1008.9
20260508074113 47 205 3.0 7.0 0.00 0.00 0.00 41 1008.8
20260508073610 47 225 2.0 3.0 0.00 0.00 0.00 42 1008.9
20260508073108 46 203 2.0 9.0 0.00 0.00 0.00 42 1008.9
20260508072603 46 230 3.0 6.0 0.00 0.00 0.00 43 1009.0
20260508072101 46 204 1.0 6.0 0.00 0.00 0.00 43 1009.1
20260508071559 46 210 2.0 6.0 0.00 0.00 0.00 43 1009.1
20260508071057 46 200 3.0 3.0 0.00 0.00 0.00 45 1008.9
20260508070554 45 225 1.0 3.0 0.00 0.00 0.00 44 1009.0
20260508070052 46 216 2.0 5.0 0.00 0.00 0.00 44 1009.0
20260508065549 45 207 1.0 3.0 0.00 0.00 0.00 46 1009.2
20260508065047 46 213 1.0 3.0 0.00 0.00 0.00 45 1009.0
20260508064544 45 226 1.0 5.0 0.00 0.00 0.00 45 1009.0
20260508064042 45 211 1.0 3.0 0.00 0.00 0.00 47 1009.2
20260508063539 45 206 1.0 2.0 0.00 0.00 0.00 48 1009.0
20260508063037 45 207 1.0 2.0 0.00 0.00 0.00 47 1009.1
20260508062535 45 205 1.0 1.0 0.00 0.00 0.00 48 1009.2
20260508062031 45 204 1.0 1.0 0.00 0.00 0.00 47 1009.3
20260508061529 45 205 0.0 2.0 0.00 0.00 0.00 47 1009.2
20260508061025 44 201 1.0 2.0 0.00 0.00 0.00 49 1009.4
20260508060522 45 206 0.0 1.0 0.00 0.00 0.00 50 1009.5
20260508060020 44 205 0.0 0.0 0.00 0.00 0.00 50 1009.3
20260508055515 44 206 1.0 2.0 0.00 0.00 0.00 50 1009.4
20260508055013 45 214 1.0 2.0 0.00 0.00 0.00 50 1009.5
20260508054509 45 204 0.0 0.0 0.00 0.00 0.00 50 1009.5
20260508054006 44 234 0.0 1.0 0.00 0.00 0.00 51 1009.3
20260508053503 44 204 0.0 0.0 0.00 0.00 0.00 52 1009.5
20260508053001 44 205 0.0 0.0 0.00 0.00 0.00 51 1009.4
20260508052458 44 204 1.0 1.0 0.00 0.00 0.00 52 1009.7
20260508051954 44 206 1.0 1.0 0.00 0.00 0.00 52 1009.8
20260508051450 44 206 1.0 1.0 0.00 0.00 0.00 52 1009.7
20260508050946 43 209 0.0 0.0 0.00 0.00 0.00 53 1009.5
20260508050443 44 207 0.0 0.0 0.00 0.00 0.00 52 1009.8
20260508045939 44 202 0.0 0.0 0.00 0.00 0.00 52 1009.7
20260508045437 44 200 0.0 0.0 0.00 0.00 0.00 53 1009.8
20260508044934 44 206 1.0 1.0 0.00 0.00 0.00 53 1009.9
20260508044431 44 202 0.0 0.0 0.00 0.00 0.00 54 1009.8
20260508043926 44 202 0.0 1.0 0.00 0.00 0.00 52 1009.7
20260508043424 43 210 1.0 1.0 0.00 0.00 0.00 53 1009.9
20260508042920 43 205 0.0 0.0 0.00 0.00 0.00 55 1009.9
20260508042418 44 205 0.0 0.0 0.00 0.00 0.00 55 1009.9
20260508041915 43 206 0.0 0.0 0.00 0.00 0.00 56 1010.1
20260508041411 44 205 0.0 0.0 0.00 0.00 0.00 56 1009.9
20260508040908 44 205 0.0 0.0 0.00 0.00 0.00 56 1010.1
20260508040405 44 205 0.0 0.0 0.00 0.00 0.00 55 1010.0
20260508035902 44 205 0.0 0.0 0.00 0.00 0.00 54 1010.1
20260508035354 44 205 0.0 0.0 0.00 0.00 0.00 55 1010.1
20260508034850 44 205 0.0 0.0 0.00 0.00 0.00 55 1010.2
20260508034348 45 205 0.0 0.0 0.00 0.00 0.00 54 1010.0
20260508033845 45 205 0.0 0.0 0.00 0.00 0.00 54 1010.3
20260508033343 45 205 0.0 0.0 0.00 0.00 0.00 53 1010.1
20260508032840 45 205 0.0 0.0 0.00 0.00 0.00 52 1010.3
20260508032337 46 205 0.0 0.0 0.00 0.00 0.00 52 1010.1
20260508031834 46 205 0.0 0.0 0.00 0.00 0.00 50 1010.1
20260508031331 46 205 0.0 0.0 0.00 0.00 0.00 50 1010.1
20260508030827 46 205 0.0 0.0 0.00 0.00 0.00 51 1010.0
20260508030324 46 205 0.0 0.0 0.00 0.00 0.00 50 1010.2
20260508025821 47 205 0.0 0.0 0.00 0.00 0.00 47 1010.3
20260508025318 47 206 0.0 0.0 0.00 0.00 0.00 47 1010.2
20260508024815 47 207 0.0 0.0 0.00 0.00 0.00 49 1010.3
20260508024311 47 200 0.0 0.0 0.00 0.00 0.00 48 1010.2
20260508023808 48 201 0.0 0.0 0.00 0.00 0.00 47 1010.2
20260508023305 48 202 0.0 0.0 0.00 0.00 0.00 44 1010.3
20260508022801 48 203 0.0 0.0 0.00 0.00 0.00 47 1010.3
20260508022257 48 197 0.0 0.0 0.00 0.00 0.00 45 1010.2
20260508021755 48 197 0.0 0.0 0.00 0.00 0.00 45 1010.1
20260508021250 49 197 0.0 0.0 0.00 0.00 0.00 44 1010.1
20260508020747 49 197 0.0 0.0 0.00 0.00 0.00 43 1009.8
20260508020245 49 197 0.0 0.0 0.00 0.00 0.00 43 1009.9
20260508015741 50 197 0.0 0.0 0.00 0.00 0.00 42 1009.8
20260508015239 50 197 0.0 0.0 0.00 0.00 0.00 41 1009.8
20260508014735 51 197 0.0 0.0 0.00 0.00 0.00 40 1009.8
20260508014232 51 196 0.0 0.0 0.00 0.00 0.00 39 1009.8
20260508013728 52 196 0.0 0.0 0.00 0.00 0.00 37 1009.4
20260508013225 52 196 0.0 0.0 0.00 0.00 0.00 36 1009.9
20260508012722 53 191 0.0 0.0 0.00 0.00 0.00 38 1009.7
20260508012219 53 185 0.0 0.0 0.00 0.00 0.00 35 1009.5
20260508011717 54 196 0.0 0.0 0.00 0.00 0.00 34 1009.5
20260508011215 55 196 0.0 0.0 0.00 0.00 0.00 34 1009.4
20260508010711 56 196 0.0 0.0 0.00 0.00 0.00 31 1009.4
20260508010209 56 203 0.0 0.0 0.00 0.00 0.00 30 1009.7
20260508005706 56 191 0.0 0.0 0.00 0.00 0.00 31 1009.3
20260508005203 56 211 1.0 2.0 0.00 0.00 0.00 29 1009.4
20260508004658 57 217 1.0 3.0 0.00 0.00 0.00 29 1009.4
20260508004154 57 227 1.0 6.0 0.00 0.00 0.00 29 1009.5
20260508003651 57 253 3.0 5.0 0.00 0.00 0.00 29 1009.4
20260508003149 57 274 2.0 3.0 0.00 0.00 0.00 28 1009.5
20260508002645 57 277 0.0 2.0 0.00 0.00 0.00 29 1009.7
20260508002143 58 273 0.0 2.0 0.00 0.00 0.00 28 1009.5
20260508001638 57 277 1.0 2.0 0.00 0.00 0.00 28 1009.5
20260508001134 58 262 2.0 3.0 0.00 0.00 0.00 28 1009.4
20260508000630 57 223 2.0 3.0 0.00 0.00 0.00 28 1009.3
20260508000128 58 206 1.0 5.0 0.00 0.00 0.00 27 1009.8
20260507235624 58 295 3.0 6.0 0.00 0.00 0.00 27 1009.7
20260507235122 57 317 4.0 6.0 0.00 0.00 0.00 27 1009.4
20260507234618 58 246 2.0 9.0 0.00 0.00 0.00 27 1009.9
20260507234115 58 222 2.0 5.0 0.00 0.00 0.00 27 1009.9
20260507233612 58 241 3.0 6.0 0.00 0.00 0.00 27 1009.8
20260507233110 58 323 4.0 7.0 0.00 0.00 0.00 27 1009.9
20260507232611 58 307 4.0 5.0 0.00 0.00 0.00 27 1010.0
20260507232104 58 321 3.0 7.0 0.00 0.00 0.00 27 1010.0
20260507231600 58 198 2.0 5.0 0.00 0.00 0.00 27 1009.9
20260507231057 58 281 3.0 3.0 0.00 0.00 0.00 27 1009.9
20260507230554 58 191 0.0 6.0 0.00 0.00 0.00 26 1010.0
20260507230050 59 295 5.0 6.0 0.00 0.00 0.00 26 1010.1
20260507225545 58 294 5.0 8.0 0.00 0.00 0.00 26 1010.0
20260507225042 58 316 5.0 7.0 0.00 0.00 0.00 25 1010.0
20260507224537 58 245 3.0 3.0 0.00 0.00 0.00 27 1010.2
20260507224035 59 130 1.0 8.0 0.00 0.00 0.00 26 1010.3
20260507223531 59 225 2.0 3.0 0.00 0.00 0.00 27 1010.4
20260507223028 59 265 4.0 6.0 0.00 0.00 0.00 25 1010.3
20260507222525 59 292 2.0 6.0 0.00 0.00 0.00 26 1010.2
20260507222021 58 89 2.0 6.0 0.00 0.00 0.00 26 1010.2
20260507221518 58 82 3.0 6.0 0.00 0.00 0.00 27 1010.2
20260507221015 59 280 4.0 5.0 0.00 0.00 0.00 26 1010.3
20260507220512 58 286 3.0 5.0 0.00 0.00 0.00 26 1010.3
20260507220009 59 312 5.0 8.0 0.00 0.00 0.00 26 1010.4
20260507215505 58 10 3.0 5.0 0.00 0.00 0.00 26 1010.5
20260507215003 57 358 6.0 8.0 0.00 0.00 0.00 26 1010.5
20260507214500 58 310 7.0 14.0 0.00 0.00 0.00 25 1010.4
20260507213955 59 308 3.0 7.0 0.00 0.00 0.00 26 1010.4
20260507213453 58 225 1.0 8.0 0.00 0.00 0.00 26 1010.4
20260507212949 57 264 4.0 6.0 0.00 0.00 0.00 27 1010.4
20260507212445 59 337 6.0 8.0 0.00 0.00 0.00 27 1010.6
20260507211942 58 337 4.0 5.0 0.00 0.00 0.00 26 1010.6
20260507211438 59 254 3.0 5.0 0.00 0.00 0.00 26 1010.7
20260507210935 58 213 1.0 3.0 0.00 0.00 0.00 26 1010.8
20260507210432 57 236 1.0 5.0 0.00 0.00 0.00 26 1010.9
20260507205929 57 262 2.0 6.0 0.00 0.00 0.00 28 1010.9
20260507205426 59 10 3.0 6.0 0.00 0.00 0.00 26 1010.9
20260507204922 58 215 0.0 3.0 0.00 0.00 0.00 26 1010.9
20260507204419 57 133 2.0 3.0 0.00 0.00 0.00 26 1011.0
20260507203916 57 226 4.0 7.0 0.00 0.00 0.00 29 1011.1
20260507203414 58 54 5.0 7.0 0.00 0.00 0.00 26 1011.3
20260507202910 57 242 2.0 7.0 0.00 0.00 0.00 26 1011.1
20260507202407 57 345 7.0 8.0 0.00 0.00 0.00 26 1011.3
20260507201902 56 332 5.0 7.0 0.00 0.00 0.00 26 1011.2
20260507201358 56 212 1.0 3.0 0.00 0.00 0.00 28 1011.3
20260507200854 56 209 1.0 5.0 0.00 0.00 0.00 27 1011.2
20260507200351 57 205 1.0 3.0 0.00 0.00 0.00 25 1011.4
20260507195847 56 221 2.0 8.0 0.00 0.00 0.00 28 1011.6
20260507195344 57 241 2.0 5.0 0.00 0.00 0.00 27 1011.5
20260507194841 57 234 3.0 5.0 0.00 0.00 0.00 27 1011.8
20260507194338 56 202 2.0 3.0 0.00 0.00 0.00 27 1011.4
20260507193835 56 220 2.0 3.0 0.00 0.00 0.00 26 1011.8
20260507193332 56 240 3.0 5.0 0.00 0.00 0.00 28 1011.7
20260507192828 54 320 7.0 8.0 0.00 0.00 0.00 27 1011.7
20260507192324 55 27 4.0 6.0 0.00 0.00 0.00 27 1011.7
20260507191820 54 296 4.0 6.0 0.00 0.00 0.00 29 1011.7
20260507191317 56 287 7.0 10.0 0.00 0.00 0.00 28 1011.7
20260507190814 56 207 1.0 5.0 0.00 0.00 0.00 26 1011.8
20260507190313 55 251 2.0 5.0 0.00 0.00 0.00 28 1011.9